Regional Weather Roundup
Issued by NWS Burlington, VT

Current Version | Previous Version | Text Only | Print | Product List | Glossary Off
Versions: 1 2 3 4 5 6 7 8 9 10 11 12 13 14 15 16 17 18 19 20 21 22 23 24 25 26 27 28 29 30 31 32 33 34 35 36 37 38 39 40 41 42 43 44 45 46 47 48 49 50

000
ASUS41 KBTV 281210
RWRBTV
VERMONT REGIONAL WEATHER ROUNDUP
NATIONAL WEATHER SERVICE BURLINGTON VT
800 AM EDT WED JUN 28 2017

NOTE: "FAIR" INDICATES FEW OR NO CLOUDS BELOW 12,000 FEET WITH NO
SIGNIFICANT WEATHER AND/OR OBSTRUCTIONS TO VISIBILITY.

* THESE REPORTS ARE NOT UNDER NWS QUALITY CONTROL AND/OR DO NOT
  REPORT WEATHER SUCH AS PRECIPITATION AND FOG.

VTZ001>019-281300-
_____VERMONT_____


CITY           SKY/WX    TMP DP  RH WIND       PRES   REMARKS
BURLINGTON     PTSUNNY   57  54  89 S9        30.01R
6HR MIN TEMP:  54; 6HR MAX TEMP:  57; 6HR PCP:  0.01;

MONTPELIER     LGT RAIN  52  52 100 CALM      30.05R
6HR MIN TEMP:  45; 6HR MAX TEMP:  52; 6HR PCP:  0.01;

MORRISVILLE    CLOUDY    55  53  93 S3        30.02R
6HR MIN TEMP:  50; 6HR MAX TEMP:  55; 6HR PCP:  0.01;

ST. JOHNSBURY*   N/A     53  52  96 MISG      30.00R
6HR MIN TEMP:  51; 6HR MAX TEMP:  53;

LYNDONVILLE*   CLOUDY    52  51  97 CALM      30.02R
6HR MIN TEMP:  50; 6HR MAX TEMP:  52;

MIDDLEBURY*    PTSUNNY   58  53  83 S5        30.03R
6HR MIN TEMP:  51; 6HR MAX TEMP:  58;

RUTLAND*       MOSUNNY   58  51  78 CALM      30.05R
6HR MIN TEMP:  50; 6HR MAX TEMP:  58;

SPRINGFIELD    CLOUDY    51  50  96 CALM      30.04S FOG
6HR MIN TEMP:  47; 6HR MAX TEMP:  51;

HIGHGATE*      CLOUDY    57  55  92 CALM      30.00R
6HR MIN TEMP:  54; 6HR MAX TEMP:  57;

NEWPORT*       CLOUDY    55  51  86 S3        30.00R
6HR MIN TEMP:  51; 6HR MAX TEMP:  56;

BENNINGTON     PTSUNNY   58  53  84 VRB3      30.07R
6HR MIN TEMP:  49; 6HR MAX TEMP:  58;

SUTTON*          N/A     50 N/A N/A MISG        N/A

_____LAKE CHAMPLAIN_____


CITY           SKY/WX    TMP DP  RH WIND       PRES   REMARKS
BURTON ISLAND*   N/A     59  55  88 SW10        N/A
COLCHESTER RF*   N/A     59  55  88 S16         N/A
DIAMOND ISL*     N/A     57  54  88 S5          N/A

$$

NYZ007-026>031-035-052-083-087-281300-
_____NORTHERN NEW YORK_____


CITY           SKY/WX    TMP DP  RH WIND       PRES   REMARKS
PLATTSBURGH    MOSUNNY   59  54  83 CALM      30.00R
6HR MIN TEMP:  53; 6HR MAX TEMP:  59; 6HR PCP:  0.03;

SARANAC LAKE   SUNNY     55  51  86 VRB5      30.02R
6HR MIN TEMP:  51; 6HR MAX TEMP:  55; 6HR PCP: TRACE;

MASSENA        MOSUNNY   59  54  83 SW9       30.02R
6HR MIN TEMP:  51; 6HR MAX TEMP:  59;

OGDENSBURG*    FAIR      58  55  88 SW5       30.02S
6HR MIN TEMP:  51; 6HR MAX TEMP:  59;

POTSDAM*       MOSUNNY   59  57  94 SW10      30.03R
WATERTOWN      PTSUNNY   62  54  74 S7        30.05R
6HR MIN TEMP:  51; 6HR MAX TEMP:  63;

FT DRUM        SUNNY     61  51  70 W7        30.04S
6HR MIN TEMP:  53; 6HR MAX TEMP:  61;

ALBANY         MOSUNNY   62  52  69 W5        30.07R
6HR MIN TEMP:  52; 6HR MAX TEMP:  62;

GLENS FALLS    SUNNY     57  53  86 SW3       30.05R
6HR MIN TEMP:  46; 6HR MAX TEMP:  57;


$$
NHZ002-005-011-281300-
_____NEW HAMPSHIRE_____


CITY           SKY/WX    TMP DP  RH WIND       PRES   REMARKS
LEBANON        MOSUNNY   55  51  86 CALM      30.02S
6HR MIN TEMP:  46; 6HR MAX TEMP:  55;

KEENE          CLOUDY    51  51 100 CALM      30.05S
6HR MIN TEMP:  46; 6HR MAX TEMP:  51;

MT WASHINGTON  FOG       36  36 100 NW37G45     N/A  VSB 0   WCI  21
6HR MIN TEMP:  34; 6HR MAX TEMP:  36; 6HR PCP:  0.03;

PLYMOUTH       CLOUDY    55  51  89 NW5       30.01R
6HR MIN TEMP:  47; 6HR MAX TEMP:  55;

WHITEFIELD     CLOUDY    54  51  90 CALM      30.01R
6HR MIN TEMP:  51; 6HR MAX TEMP:  55;


$$

_____REGIONAL QUEBEC LOCATIONS_____


CITY           SKY/WX    TMP DP  RH WIND       PRES   REMARKS
MONTREAL       PTSUNNY   59  55  88 SW10      29.97R
QUEBEC CITY    PTSUNNY   57  54  88 SW9       29.91R
SHERBROOKE     PTSUNNY   55  54  94 SW3       29.97R

_____REGIONAL ONTARIO LOCATIONS_____


CITY           SKY/WX    TMP DP  RH WIND       PRES   REMARKS
OTTAWA         PTSUNNY   55  54  94 W6        30.00R

______KEY______
VSB  - VISIBILITY IN MILES
WCI  - WIND CHILL INDEX
HX   - HEAT INDEX
$$
NNNN




USA.gov is the U.S. government's official web portal to all federal, state and local government web resources and services.